Location: Mason-Dixon Star Party
(40.0361°N, 76.9958°W)
Time: 02:13:48
(UTC-04:00)

Daily predictions for brighter satellites

Satellite Brightness Start Highest point End
(mag) Time Altitude Azimuth Time Altitude Azimuth Time Altitude Azimuth
CZ-2D R/B 4.3 03:09:50 10° NNE 03:11:59 23° NE 03:11:59 23° NE
Cosmos 1980 Rocket 4.3 03:19:15 22° NNE 03:19:15 22° NNE 03:21:12 10° NNE
Resurs 1-4 Rocket 4.3 03:14:45 10° NNE 03:16:34 21° NNE 03:16:34 21° NNE
FALCON 9 R/B 4.2 03:31:23 69° SSW 03:32:05 70° S 04:08:42 10° ESE
Cosmos 2263 Rocket 4.1 03:28:19 10° N 03:31:06 25° NNE 03:31:06 25° NNE
Cosmos 2315 Rocket 4.4 04:10:00 56° N 04:10:00 56° N 04:14:50 10° N
SL-16 R/B 4.2 04:16:19 20° NNW 04:16:19 20° NNW 04:18:14 10° NNW
Lacrosse 4 Rocket 4.1 04:09:55 10° N 04:12:55 19° NE 04:15:56 10° E
SL-08 ROCKET BODY 4.5 04:20:18 10° N 04:26:10 70° E 04:27:25 54° SE
Cosmos 2322 Rocket 3.0 04:28:06 40° NNW 04:28:06 40° NNW 04:32:08 10° NNE
CENTAUR R/B 3.4 04:30:06 36° NW 04:30:06 36° NW 04:36:16 10° NNE
USA 215 3.5 04:23:56 10° ESE 04:30:26 68° NE 04:36:57 10° NW
SL-16 R/B 2.9 04:31:51 41° NNW 04:31:51 41° NNW 04:36:06 10° NNE
ADEOS Rocket 3.6 04:25:31 10° N 04:29:18 38° NNW 04:29:18 38° NNW
COSMOS 2428 4.2 04:32:15 20° SSE 04:35:09 32° ESE 04:40:09 10° NE
Cosmos 2219 Rocket 4.4 04:38:33 10° SE 04:42:32 20° E 04:46:31 10° NE
Cosmos 2074 Rocket 3.9 04:36:40 10° N 04:42:57 83° E 04:47:29 20° S
ARIANE 5 R/B 4.3 04:42:10 10° NNW 04:44:11 19° NNW 04:44:11 19° NNW
ISS -1.2 04:51:36 16° ESE 04:51:36 16° ESE 04:52:21 10° ESE
Cosmos 1844 Rocket 4.4 04:46:40 10° N 04:51:41 33° ENE 04:56:39 10° ESE
IRS-1C Rocket 4.5 04:49:05 10° NNE 04:54:18 62° ESE 04:57:00 28° S
CZ-2D R/B 3.8 04:50:36 10° NNW 04:53:19 21° NW 04:53:19 21° NW
Cosmos 1544 Rocket 3.8 04:53:25 10° N 04:57:05 58° NNW 04:57:05 58° NNW
Cosmos 2360 Rocket 2.1 04:57:54 62° WSW 04:58:39 71° WNW 05:04:19 10° NNE
Resurs 1-4 Rocket 3.9 04:55:34 10° NNW 04:57:40 17° NW 04:57:40 17° NW
Cosmos 1980 Rocket 4.4 05:01:00 11° NW 05:01:00 11° NW 05:02:31 10° NNW
Cosmos 1812 4.4 05:04:57 23° NNW 05:04:57 23° NNW 05:06:38 10° N
CZ-4B R/B 3.0 04:59:25 10° NNE 05:02:24 58° NNE 05:02:24 58° NNE
Okean O Rocket 1.5 05:04:38 10° N 05:09:05 79° WNW 05:09:49 61° SW
PAYLOAD B 4.2 05:08:56 10° NNE 05:14:34 85° WNW 05:18:06 24° SSW
Cosmos 2184 Rocket 4.0 05:11:09 10° NNW 05:17:10 55° W 05:22:49 12° SSW
Cosmos 2263 Rocket 4.3 05:12:19 10° NW 05:12:41 12° NW 05:12:41 12° NW
Cosmos 1340 3.0 05:18:04 50° NW 05:18:04 50° NW 05:21:15 10° N
Okean-O 4.2 05:14:55 10° NNE 05:19:00 35° E 05:23:02 10° SSE
Meteor 1-12 Rocket 4.2 05:13:59 10° NNW 05:19:34 63° W 05:25:11 10° S
DELTA 2 R/B (1) 3.7 05:20:34 39° SW 05:22:31 63° SSE 05:28:00 10° E
Cosmos 1777 Rocket 4.1 05:17:34 10° NNW 05:22:39 49° WSW 05:27:43 10° S
Cosmos 2333 Rocket 3.6 05:18:10 10° S 05:23:18 36° ESE 05:28:30 10° NE
Meteor 1-18 Rocket 4.5 05:22:11 38° WSW 05:23:28 45° WNW 05:28:50 10° N
ATLAS 5 CENTAUR R/B 4.2 05:18:21 10° NNW 05:23:32 30° NE 05:29:05 10° ESE
Cosmos 1666 4.2 05:21:41 10° N 05:25:21 39° ENE 05:28:59 10° SSE
ADEOS II 2.0 05:22:12 10° N 05:27:26 69° WNW 05:30:52 22° SSW
Cosmos 1743 2.9 05:23:42 10° N 05:27:35 73° E 05:31:25 10° SSE
Meteor 1-31 Rocket 3.9 05:24:41 10° NNE 05:28:20 42° E 05:31:57 10° S
Cosmos 1455 Rocket 3.4 05:27:41 10° NNW 05:31:47 39° W 05:32:07 39° WSW
Cosmos 2322 4.1 05:29:55 33° WSW 05:31:54 44° WNW 05:37:23 10° NNE
Lacrosse 5 3.5 05:34:52 17° SSW 05:34:52 17° SSW 05:36:32 10° S
MOS 1 Rocket 4.2 05:28:59 10° N 05:33:03 29° WNW 05:33:13 29° WNW
EO 1 Del DPAF 3.4 05:34:09 30° SSW 05:35:38 47° W 05:39:24 10° NNW
SAR-Lupe-3 4.3 05:33:27 10° S 05:36:54 70° W 05:40:23 10° NNW
Meteor 1-13 Rocket 4.1 05:34:00 10° SSW 05:39:30 81° W 05:45:08 10° N
Okean 1 4.4 05:40:04 27° WNW 05:40:04 27° WNW 05:43:18 10° NNW
USA 116 4.0 05:40:21 10° SSE 05:44:24 81° ENE 05:49:05 10° N
Cosmos 1238 Rocket 2.2 05:46:13 38° SW 05:46:57 50° W 05:49:50 10° N
Cosmos 2154 Rocket 4.0 05:44:47 10° NNW 05:50:50 56° W 05:56:51 10° SSW
Cosmos 2333 4.2 05:46:11 15° SW 05:50:54 67° WNW 05:56:36 10° NNE
Cosmos 1975 4.0 05:47:42 10° NW 05:50:37 24° W 05:50:37 24° W
Meteor 2-19 Rocket 4.4 05:45:39 10° N 05:51:47 89° E 05:57:50 10° S
Lacrosse 4 Rocket 1.7 05:47:49 10° NW 05:51:48 42° WSW 05:55:51 10° S
Cosmos 1844 3.9 05:47:54 10° NNW 05:53:42 79° ENE 05:59:24 10° SSE
Cosmos 2208 Rocket 4.4 05:53:05 16° SW 05:57:12 47° WNW 06:02:28 10° N
Aureole 2 Rocket 3.9 05:54:37 10° S 05:58:09 39° ESE 06:01:25 10° NE
CZ-4B R/B 3.8 05:55:01 10° N 06:00:11 38° WNW 06:04:58 11° SW
Tiangong 2 1.0 05:59:14 22° WNW 06:01:05 88° N 06:04:13 10° ESE
Meteor PRIRODA 3.9 05:57:57 10° N 06:01:34 47° WNW 06:05:11 10° SSW
Cosmos 1437 3.9 05:58:46 10° S 06:01:55 46° E 06:05:05 10° NNE
Iridium 2 4.2 05:58:34 10° N 06:02:23 63° E 06:06:10 10° SSE
Cosmos 1867 4.3 06:00:11 10° NNW 06:05:34 56° NE 06:10:53 10° SE
SKYMED 2 4.4 06:03:23 10° SSE 06:07:36 54° ENE 06:11:51 10° N
Okean 1-7 Rocket 3.6 06:03:24 10° SSW 06:07:53 62° W 06:12:22 10° N
Cosmos 2181 Rocket 4.0 06:04:01 10° SSW 06:10:07 62° W 06:16:22 10° N
Cosmos 1980 3.9 06:07:43 10° SSW 06:13:21 78° ESE 06:19:00 10° NNE
Gblst 52 Del rocket 4.4 06:07:38 10° WNW 06:13:24 66° SW 06:19:56 10° SE
USA 215 3.9 06:07:51 10° S 06:13:40 34° SW 06:19:31 10° WNW
SL-8 Rocket 4.0 06:08:37 10° N 06:14:51 81° W 06:21:01 10° S
Meteor 1-23 Rocket 4.3 06:12:06 10° SSW 06:17:53 75° W 06:23:42 10° N
COSMOS 2428 3.4 06:14:19 11° WSW 06:19:19 35° WNW 06:24:32 10° N
ERS-2 3.0 06:17:21 10° N 06:20:40 31° WNW 06:23:57 10° SW
Radarsat Rocket 4.1 06:16:29 10° NNE 06:22:30 78° ESE 06:28:18 10° SSW
Thor Agena Rocket 3.5 06:17:36 10° S 06:22:37 64° WSW 06:27:38 10° NNW
USA 229 DEB 3.7 06:17:33 10° SW 06:24:22 71° NW 06:31:20 10° NNE
USA 229 3.7 06:17:40 10° SW 06:24:28 71° NW 06:31:26 10° NNE
ISS -1.7 06:24:20 11° WSW 06:25:06 12° SW 06:26:19 10° SSW
Cosmos 2219 Rocket 2.4 06:20:35 10° SW 06:26:01 53° WNW 06:31:29 10° NNE
Meteor 2-9 Rocket 4.3 06:21:33 10° NNW 06:27:06 56° W 06:32:30 10° S
Okean 2 3.4 06:23:47 10° SSW 06:27:54 65° W 06:32:04 10° N
Cosmos 2341 Rocket 4.5 06:22:38 10° NNW 06:28:18 38° W 06:33:57 10° SSW
Cosmos 1606 Rocket 3.5 06:24:21 10° N 06:28:49 76° W 06:33:17 10° S
Cosmos 2150 Rocket 4.0 06:25:15 10° NNW 06:30:33 77° WSW 06:35:54 10° SSE
GENESIS II 4.4 06:27:06 10° SSW 06:31:10 86° ESE 06:35:16 10° NNE
Cosmos 1844 Rocket 3.3 06:30:33 10° NW 06:35:31 34° WSW 06:40:28 10° SSW
Meteor 1-15 Rocket 4.4 06:31:29 10° NNW 06:37:21 65° W 06:43:11 10° S
Cosmos 2218 Rocket 4.1 06:31:34 10° NNW 06:37:54 65° W 06:44:08 10° S
Meteor 1-28 Rocket 3.2 06:34:13 10° S 06:38:01 83° W 06:41:51 10° NNW
NOSS 3-1 (C) 3.8 06:34:53 10° SSW 06:40:32 67° ESE 06:46:51 10° NE
Cosmos 990 Rocket 4.0 06:36:54 10° NNW 06:42:06 80° WSW 06:47:14 10° SSE
Cosmos 1898 Rocket 3.8 06:37:25 10° NNW 06:42:21 44° WSW 06:47:13 10° S
